Regional Weather Roundup
Issued by NWS

Home | Current Version | Previous Version | Graphics & Text | Print | Product List | Glossary Off
Versions: 1 2 3 4 5 6 7 8 9 10 11 12 13 14 15 16 17 18 19 20 21 22 23 24 25 26 27 28

000
ASUS45 KBOU 210907
RWRCO

WEATHER ROUNDUP FOR COLORADO
NATIONAL WEATHER SERVICE DENVER/BOULDER CO
200 AM MST TUE FEB 21 2017

NOTE: "FAIR" INDICATES FEW OR NO CLOUDS BELOW 12000 FEET WITH NO
SIGNIFICANT WEATHER AND/OR OBSTRUCTIONS TO VISIBILITY.

COZ001>005-013-030-031-211000-
...NORTHWEST COLORADO...

CITY           SKY/WX    TMP DP  RH WIND       PRES   REMARKS
CRAIG          CLOUDY    42  30  62 SW5       30.18S
HAYDEN         CLOUDY    36  27  69 E5        30.20R
MEEKER         CLOUDY    43  31  62 CALM      30.22R
MOUNT WERNER   NOT AVBL
STEAMBOAT SPGS CLOUDY    34  28  78 E6        30.20S WCI  29
WALDEN         NOT AVBL
$$

COZ006>008-011-211000-
...WEST CENTRAL VALLEYS...

CITY           SKY/WX    TMP DP  RH WIND       PRES   REMARKS
GRAND JUNCTION FAIR      41  35  79 E3        30.24F
MONTROSE       CLOUDY    43  33  68 SE6       30.32R
EAGLE          CLOUDY    31  26  82 VRB3      30.29
RIFLE          CLOUDY    40  34  79 E8        30.25F
DELTA          CLOUDY    46  34  64 NE8       30.31R
NUCLA          FAIR      43  32  65 E5        30.34F
$$

COZ017>023-064>068-211000-
...SOUTHWEST COLORADO...

CITY           SKY/WX    TMP DP  RH WIND       PRES   REMARKS
DURANGO        CLOUDY    32  28  85 CALM      30.36S
CORTEZ         CLOUDY    39  36  89 CALM      30.35S
PAGOSA SPRINGS FAIR      28  27  98 CALM      30.40R
TELLURIDE      MOCLDY    34  24  66 CALM      30.39R
WOLF CREEK PAS SNOW      21  21 100 S16G23    30.47R VSB 1/4 WCI   7
$$

COZ009-010-012-014-032>034-037-058>063-211000-
...CENTRAL COLORADO...

CITY           SKY/WX    TMP DP  RH WIND       PRES   REMARKS
ASPEN          FAIR      29  20  69 S5        30.28R WCI  24
BUENA VISTA    FAIR      32  18  57 N6        30.26R WCI  26
COPPER MTN     CLOUDY    32  19  59 W21G30    30.33R WCI  20
BERTHOUD PASS  FAIR      23  14  68 W31G41    30.29R WCI   5
COTTONWOOD PAS MOCLDY    36  19  51 NW12G24   30.29R
GUNNISON       FLURRIES  22  19  89 NE5       30.38S WCI  16
KREMMLING      FAIR      41  28  60 N6        30.24R
LEADVILLE      MOCLDY    22  12  65 NE3       30.28R
MONARCH PASS   CLOUDY    23  14  68 W30       30.48R WCI   5
SALIDA         FAIR      45  17  32 SW15G28   30.32R
SUNLIGHT       NOT AVBL
WILKERSON PASS FAIR      28  14  54 SW15G24   30.33R WCI  17
$$

COZ069>075-211000-
...SAN LUIS VALLEY/SANGRE DE CRISTO MOUNTAINS...

CITY           SKY/WX    TMP DP  RH WIND       PRES   REMARKS
ALAMOSA        FAIR      25  23  92 E6        30.30R WCI  18
LA VETA PASS   FAIR      28  18  64 NE30G40   30.27S WCI  13
SAGUACHE       FAIR      30  19  64 NW9       30.32R WCI  22
$$

COZ035-036-038>040-211000-
...NORTHERN COLORADO FRONT RANGE...

CITY           SKY/WX    TMP DP  RH WIND       PRES   REMARKS
DENVER INTL AP FAIR      44  11  26 S9        30.00S
DMNS CITY PARK   N/A     50  12  21 SE10G18   29.99F
AURORA         PTCLDY    44  11  26 S9        30.02R
FRONT RANGE AP FAIR      45  14  29 S16       30.01S
ERIE MUNI ARPT FAIR      39  15  37 CALM      29.99S
BOULDER MUN AP FAIR      46  18  31 N7        29.98S
CENTENNIAL     FAIR      52  13  21 SW12      30.02R
BROOMFIELD     FAIR      43  14  31 SW3       30.01R
FORT COLLINS   FAIR      51  20  29 W10G17    30.00R
LONGMONT       FAIR      45  18  33 CALM      30.00S
$$

COZ041-046-047-076>085-087-088-211000-
...PIKES PEAK/PALMER DIVIDE AND SOUTHERN FOOTHILLS...

CITY           SKY/WX    TMP DP  RH WIND       PRES   REMARKS
COLO. SPRINGS  FAIR      37   7  28 N13       30.07F
A. F. ACADEMY  FAIR      44   9  24 VRB6G24   30.04F
SCHRIEVER AFB  FAIR      40   7  25 N9G17     30.08S
ELLICOTT       FAIR     N/A N/A N/A CALM      30.06F
FALCON         FAIR      38   6  26 SE3       30.10R
FORT CARSON    FAIR      36   9  32 NW12      30.04F
LIMON          FAIR      23  11  60 N3        30.04F
MONUMENT HILL  FAIR      37  12  35 S3        30.10R
TRINIDAD       FAIR      32  11  41 NW12      30.11F WCI  23
$$

COZ042>045-048>051-090-091-211000-
...NORTHEAST COLORADO...

CITY           SKY/WX    TMP DP  RH WIND       PRES   REMARKS
GREELEY ARPT   FAIR      28  18  66 CALM      30.00R
AKRON          FAIR      43  12  28 SW15      29.97F
BURLINGTON     FAIR      40  13  33 SW14      30.02F
WRAY           NOT AVBL
STERLING       FAIR      32  19  59 W7        29.97R WCI  26
HOLYOKE        FAIR      36  19  51 SW8       29.96
FORT MORGAN    FAIR      36  13  37 SW7       29.99R
$$

COZ086-089-092>099-211000-
...SOUTHEAST COLORADO...

CITY           SKY/WX    TMP DP  RH WIND       PRES   REMARKS
PUEBLO         FAIR      33  16  49 SW7       30.05S WCI  27
LA JUNTA       FAIR      44  16  32 SW12      30.03F
LAMAR          FAIR      27  14  58 CALM      30.03F
SPRINGFIELD      N/A     33  15  47 SW12      30.07F WCI  24
$$




USA.gov is the U.S. government's official web portal to all federal, state and local government web resources and services.